Regional Weather Roundup
Issued by NWS

Home | Current Version | Previous Version | Graphics & Text | Print | Product List | Glossary On
Versions: 1 2 3 4 5 6 7 8 9 10 11 12 13 14 15 16 17 18 19 20 21 22 23 24 25 26 27 28 29 30 31 32 33 34 35 36 37 38 39 40 41 42 43 44 45 46 47 48 49 50
000
ASUS45 KABQ 290310
RWRNM
NEW MEXICO REGIONAL WEATHER ROUNDUP
NATIONAL WEATHER SERVICE ALBUQUERQUE NM
900 PM MDT THU MAY 28 2015

NOTE: "FAIR" MEANS FEW OR NO CLOUDS BELOW 12,000 FEET AGL WITH NO
       SIGNIFICANT WEATHER OR OBSTRUCTIONS TO VISION.

      THIS PRODUCT IS RELEASED AS TWO VERSIONS.  ONE VERSION NEAR
      THE TOP OF THE HOUR CONTAINING PRELIMINARY DATA FROM ALBUQUERQUE
      AND OTHER STATIONS.  A FINAL VERSION WITH ADDITIONAL DATA IS
      ISSUED ABOUT 10 MINUTES AFTER THE HOUR.

NMZ501-503-504-510>518-290400-
NORTHWEST PLATEAU/NORTHCENTRAL MOUNTAINS

CITY           SKY/WX    TMP DP  RH WIND       PRES   REMARKS
FARMINGTON     CLEAR     68  34  28 N18G30    30.07R
LOS ALAMOS     CLEAR     66  26  22 NW7       30.15R
SANTA FE       CLEAR     65  23  20 N10       30.07R
TAOS           CLEAR     59  23  25 NW7       30.15R
ANGEL FIRE     FAIR      51  32  48 CALM      30.23R

$$
NMZ402-403-502-505>509-290400-
WESTCENTRAL MOUNTAINS/SOUTHWEST MOUNTAINS

CITY           SKY/WX    TMP DP  RH WIND       PRES   REMARKS
GALLUP         CLEAR     63  21  20 W7        30.13R
GRANTS         CLEAR     65  16  15 W9        30.14R
SILVER CITY      N/A     73  16  11 W8        30.07R

$$
NMZ407-409-411-412-290400-
SOUTHERN DESERTS

CITY           SKY/WX    TMP DP  RH WIND       PRES   REMARKS
LORDSBURG      FAIR      79  19  11 W9        29.98R
DEMING         CLEAR     79  18  10 W9        29.97R
LAS CRUCES     CLEAR     80  15   9 W13       29.96R
HOLLOMAN AFB   CLEAR     78  20  11 SW10      29.89R
ALAMOGORDO     CLEAR     73  18  12 S6        29.92R
T OR C         CLEAR     82  16   8 W15       29.94R

$$
NMZ519>523-290400-
CENTRAL VALLEYS/CENTRAL HIGHLANDS

CITY           SKY/WX    TMP DP  RH WIND       PRES   REMARKS
ALBUQUERQUE    PTCLDY    76  22  13 NW9       30.01R
DOUBLE EAGLE   PTCLDY    63  32  31 W8        30.05R
MORIARTY ARPT  FAIR      60  24  25 W8        30.07R
CLINES CORNERS CLEAR     63  21  20 NW9       30.10R
BELEN          FAIR      72  15  11 NW12      30.00R
SOCORRO        FAIR      80  13   8 NW24G31   29.95R

$$
NMZ524>526-539-540-290400-
SOUTHCENTRAL MOUNTAINS

CITY           SKY/WX    TMP DP  RH WIND       PRES   REMARKS
RUIDOSO        CLEAR     66  18  15 SW6       30.13R

$$
NMZ527>531-290400-
NORTHEAST HIGHLANDS/NORTHEAST PLAINS

CITY           SKY/WX    TMP DP  RH WIND       PRES   REMARKS
LAS VEGAS      CLEAR     60  25  26 NW13      30.10R
RATON          LGT RAIN  60  45  57 NE8       30.08R
CLAYTON        TSTM      56  48  74 E7        30.03R

$$
NMZ532>537-290400-
EASTCENTRAL PLAINS

CITY           SKY/WX    TMP DP  RH WIND       PRES   REMARKS
TUCUMCARI      CLOUDY    68  56  65 E12       29.92R
CANNON AFB     NOT AVBL
CLOVIS AIRPORT CLOUDY    61  54  77 S14       29.91F

$$
NMZ028-029-538-290400-
SOUTHEAST PLAINS

CITY           SKY/WX    TMP DP  RH WIND       PRES   REMARKS
ROSWELL        MOCLDY    70  56  61 SE17      29.93R
ARTESIA        PTCLDY    70  57  64 SE22G29   29.93R
CARLSBAD       MOCLDY    72  57  59 E13       29.92R
HOBBS          CLOUDY    61  57  88 E17G24    29.95F


$$


USA.gov is the U.S. government's official web portal to all federal, state and local government web resources and services.